Location: Berlise
(49.6641°N, 4.1077°E)
Time: 02:10:55
(UTC+00:00)

FENGYUN 3A - Pass Details

Date: 27 January 2021
Orbit: 824 x 836 km, 98.4° (Epoch: 28 February)

Event Time Altitude Azimuth Distance (km) Brightness Sun altitude
Rises 03:57:54 0° 16° (NNE) 3,378 7.2 -33.0°
Reaches altitude 10° 04:00:18 10° 20° (NNE) 2,442 6.4 -32.6°
Enters shadow 04:04:54 56° 63° (ENE) 986 4.2 -31.8°
